Location: Saratoga Springs
(43.0831°N, 73.7850°W)
Time: 16:53:42
(UTC-04:00)

Vanguard 2 Rocket - Pass Details

Date: 19 April 2024
Orbit: 556 x 3304 km, 32.9° (Epoch: 20 May)

Event Time Altitude Azimuth Distance (km) Brightness Sun altitude
Rises 04:26:14 0° 279° (W) 7,279 11.1 -17.2°
Reaches altitude 10° 04:32:01 10° 272° (W) 6,136 10.6 -16.3°
Maximum altitude 04:47:17 33° 218° (SW) 3,730 9.5 -14.0°
Drops below altitude 10° 04:58:05 10° 159° (SSE) 4,313 10.3 -12.3°
Sets 05:01:21 0° 150° (SSE) 4,946 10.7 -11.7°
